Retour au catalogue

STARLINK-32258

ActifCommunicationsVLEO
NORAD 60939·PAYLOAD·🇺🇸 United States

Lancé Aug 31, 2024 depuis Vandenberg Space Force Base

Loading…

Prochains Passages (prochaines 24 heures)

TLE

FraisSource: CelesTrak SupGP

Époque: Sep 14, 2026, 20:50 UTC

1 60939C 24155R   26257.86854167 -.00021554  00000+0 -63694-3 0  2577
2 60939  53.1582 327.6949 0001121  82.4158 180.4765 15.34395531    17

Suivez STARLINK-32258 en temps réel avec AllMySat

Download on the App Store